• Em Portugal
  • Lista de países
  • Para 7 dias
  • Temperatura da água
  • Mapas de satélite
  • Mapa do tempo
  • Widgets de tempo
  • user-avatar
    Iniciar Sessão

    Previsão horária em Rio Branco

    Hoje, 23 Agosto, Quarta-feira

    Tempo Temperatura Precipitação Vento Pressão Humidade
    00:00 +23°C° 0 mm 0 m/s 746 mmHg 57%
    01:00 +23°C° 0 mm 0 m/s 746 mmHg 59%
    02:00 +22°C° 0 mm 0 m/s 746 mmHg 60%
    03:00 +22°C° 0 mm 0 m/s 745 mmHg 61%
    04:00 +22°C° 0 mm 0 m/s 745 mmHg 62%
    05:00 +23°C° 0 mm 0 m/s 746 mmHg 61%
    06:00 +23°C° 0 mm 0 m/s 746 mmHg 60%
    07:00 +24°C° 0 mm 0 m/s 747 mmHg 59%
    08:00 +27°C° 0 mm 0 m/s 747 mmHg 51%
    09:00 +32°C° 0 mm 1 m/s 747 mmHg 43%
    10:00 +35°C° 0 mm 1 m/s 747 mmHg 35%
    11:00 +36°C° 0 mm 1 m/s 746 mmHg 33%
    12:00 +37°C° 0 mm 1 m/s 745 mmHg 30%
    13:00 +39°C° 0 mm 2 m/s 744 mmHg 28%
    14:00 +37°C° 0 mm 1 m/s 743 mmHg 29%
    15:00 +37°C° 0 mm 1 m/s 743 mmHg 30%
    16:00 +37°C° 0 mm 1 m/s 742 mmHg 30%
    17:00 +34°C° 0 mm 1 m/s 743 mmHg 36%
    18:00 +30°C° 0 mm 0 m/s 743 mmHg 42%
    19:00 +27°C° 0 mm 0 m/s 743 mmHg 48%
    20:00 +27°C° 0 mm 0 m/s 744 mmHg 50%
    21:00 +26°C° 0 mm 0 m/s 744 mmHg 52%
    22:00 +26°C° 0 mm 0 m/s 745 mmHg 53%
    23:00 +25°C° 0 mm 0 m/s 745 mmHg 55%

    Amanhã, 24 Agosto, Quinta-feira

    Tempo Temperatura Precipitação Vento Pressão Humidade
    00:00 +25°C° 0 mm 0 m/s 745 mmHg 57%
    01:00 +24°C° 0 mm 0 m/s 744 mmHg 58%
    02:00 +24°C° 0 mm 0 m/s 744 mmHg 59%
    03:00 +24°C° 0 mm 0 m/s 744 mmHg 61%
    04:00 +23°C° 0 mm 0 m/s 744 mmHg 62%
    05:00 +24°C° 0 mm 0 m/s 745 mmHg 61%
    06:00 +25°C° 0 mm 0 m/s 746 mmHg 60%
    07:00 +26°C° 0 mm 0 m/s 746 mmHg 58%
    08:00 +31°C° 0 mm 1 m/s 746 mmHg 51%
    09:00 +34°C° 0 mm 1 m/s 747 mmHg 43%
    10:00 +37°C° 0 mm 1 m/s 747 mmHg 35%
    11:00 +37°C° 0 mm 1 m/s 746 mmHg 33%
    12:00 +39°C° 0 mm 1 m/s 745 mmHg 32%
    13:00 +39°C° 0 mm 1 m/s 744 mmHg 31%
    14:00 +39°C° 0 mm 1 m/s 743 mmHg 31%
    15:00 +37°C° 0 mm 1 m/s 743 mmHg 32%
    16:00 +37°C° 0 mm 1 m/s 742 mmHg 32%
    17:00 +35°C° 0 mm 1 m/s 743 mmHg 38%
    18:00 +31°C° 0 mm 0 m/s 743 mmHg 43%
    19:00 +28°C° 0 mm 0 m/s 743 mmHg 48%
    20:00 +28°C° 0 mm 0 m/s 744 mmHg 49%
    21:00 +27°C° 0 mm 0 m/s 744 mmHg 51%
    22:00 +27°C° 0 mm 0 m/s 745 mmHg 52%
    23:00 +26°C° 0 mm 0 m/s 745 mmHg 54%

    Depois de amanhã, 25 Agosto, Sexta-feira

    Tempo Temperatura Precipitação Vento Pressão Humidade
    00:00 +26°C° 0 mm 0 m/s 744 mmHg 55%
    01:00 +26°C° 0 mm 0 m/s 744 mmHg 56%
    02:00 +25°C° 0 mm 0 m/s 744 mmHg 58%
    03:00 +25°C° 0 mm 0 m/s 744 mmHg 59%
    04:00 +25°C° 0 mm 0 m/s 744 mmHg 60%
    05:00 +25°C° 0 mm 0 m/s 745 mmHg 59%
    06:00 +26°C° 0 mm 0 m/s 745 mmHg 58%
    07:00 +27°C° 0 mm 0 m/s 746 mmHg 57%
    08:00 +30°C° 0 mm 0 m/s 746 mmHg 49%
    09:00 +35°C° 0 mm 1 m/s 746 mmHg 41%
    10:00 +39°C° 0 mm 1 m/s 747 mmHg 33%
    11:00 +40°C° 0 mm 1 m/s 746 mmHg 30%
    12:00 +41°C° 0 mm 1 m/s 745 mmHg 28%
    13:00 +42°C° 0 mm 1 m/s 743 mmHg 25%
    14:00 +40°C° 0 mm 1 m/s 743 mmHg 28%
    15:00 +39°C° 0 mm 1 m/s 742 mmHg 30%
    16:00 +37°C° 0 mm 1 m/s 742 mmHg 33%
    17:00 +35°C° 0 mm 1 m/s 742 mmHg 37%
    18:00 +34°C° 0 mm 1 m/s 743 mmHg 40%
    19:00 +32°C° 0 mm 1 m/s 743 mmHg 44%
    20:00 +32°C° 0 mm 1 m/s 744 mmHg 46%
    21:00 +31°C° 0 mm 1 m/s 744 mmHg 47%
    22:00 +31°C° 0 mm 1 m/s 744 mmHg 49%
    23:00 +30°C° 0 mm 1 m/s 744 mmHg 51%

    26 Agosto, Sábado

    Tempo Temperatura Precipitação Vento Pressão Humidade
    00:00 +29°C° 0 mm 1 m/s 744 mmHg 53%
    01:00 +29°C° 0 mm 1 m/s 744 mmHg 56%
    02:00 +28°C° 0 mm 1 m/s 744 mmHg 58%
    03:00 +26°C° 0 mm 0 m/s 744 mmHg 60%
    04:00 +25°C° 0 mm 0 m/s 744 mmHg 63%
    05:00 +26°C° 0 mm 0 m/s 745 mmHg 62%
    06:00 +29°C° 0 mm 1 m/s 745 mmHg 61%
    07:00 +29°C° 0 mm 1 m/s 746 mmHg 60%
    08:00 +32°C° 0 mm 1 m/s 746 mmHg 53%
    09:00 +34°C° 0 mm 1 m/s 746 mmHg 47%
    10:00 +38°C° 0 mm 2 m/s 746 mmHg 40%
    11:00 +37°C° 0 mm 1 m/s 745 mmHg 38%
    12:00 +37°C° 0 mm 1 m/s 744 mmHg 37%
    13:00 +39°C° 0 mm 1 m/s 743 mmHg 35%
    14:00 +37°C° 0 mm 1 m/s 743 mmHg 36%
    15:00 +37°C° 0 mm 1 m/s 743 mmHg 37%
    16:00 +35°C° 0 mm 0 m/s 742 mmHg 38%
    17:00 +33°C° 0 mm 0 m/s 743 mmHg 42%
    18:00 +31°C° 0 mm 0 m/s 743 mmHg 46%
    19:00 +29°C° 0 mm 0 m/s 743 mmHg 51%
    20:00 +29°C° 0 mm 0 m/s 744 mmHg 53%
    21:00 +28°C° 0 mm 0 m/s 744 mmHg 55%
    22:00 +28°C° 0 mm 0 m/s 744 mmHg 57%
    23:00 +27°C° 0 mm 0 m/s 744 mmHg 59%

    27 Agosto, Domingo

    Tempo Temperatura Precipitação Vento Pressão Humidade
    00:00 +27°C° 0 mm 0 m/s 744 mmHg 61%
    01:00 +26°C° 0 mm 0 m/s 744 mmHg 62%
    02:00 +26°C° 0 mm 0 m/s 744 mmHg 64%
    03:00 +25°C° 0 mm 0 m/s 744 mmHg 66%
    04:00 +25°C° 0 mm 0 m/s 744 mmHg 68%
    05:00 +26°C° 0 mm 0 m/s 745 mmHg 67%
    06:00 +26°C° 0 mm 0 m/s 745 mmHg 65%
    07:00 +27°C° 0 mm 0 m/s 746 mmHg 64%
    08:00 +29°C° 0 mm 0 m/s 746 mmHg 57%
    09:00 +34°C° 0 mm 1 m/s 746 mmHg 49%
    10:00 +37°C° 0 mm 1 m/s 746 mmHg 42%
    11:00 +35°C° 0 mm 0 m/s 745 mmHg 39%
    12:00 +36°C° 0 mm 0 m/s 745 mmHg 36%
    13:00 +37°C° 0 mm 0 m/s 744 mmHg 33%
    14:00 +36°C° 0 mm 0 m/s 743 mmHg 34%
    15:00 +36°C° 0 mm 0 m/s 743 mmHg 35%
    16:00 +35°C° 0 mm 0 m/s 742 mmHg 36%
    17:00 +33°C° 0 mm 0 m/s 743 mmHg 41%
    18:00 +31°C° 0 mm 0 m/s 743 mmHg 45%
    19:00 +30°C° 0 mm 0 m/s 744 mmHg 50%
    20:00 +29°C° 0 mm 0 m/s 744 mmHg 52%
    21:00 +29°C° 0 mm 0 m/s 744 mmHg 54%
    22:00 +28°C° 0 mm 0 m/s 745 mmHg 56%
    23:00 +27°C° 0 mm 0 m/s 744 mmHg 59%

    28 Agosto, Segunda-feira

    Tempo Temperatura Precipitação Vento Pressão Humidade
    00:00 +27°C° 0 mm 0 m/s 744 mmHg 61%
    01:00 +28°C° 0 mm 1 m/s 743 mmHg 64%
    02:00 +28°C° 0 mm 1 m/s 743 mmHg 65%
    03:00 +26°C° 0 mm 0 m/s 744 mmHg 67%
    04:00 +26°C° 0 mm 0 m/s 744 mmHg 68%
    05:00 +26°C° 0 mm 0 m/s 744 mmHg 66%
    06:00 +29°C° 0 mm 1 m/s 745 mmHg 64%
    07:00 +30°C° 0 mm 1 m/s 746 mmHg 62%
    08:00 +33°C° 0 mm 1 m/s 746 mmHg 51%
    09:00 +36°C° 0 mm 1 m/s 746 mmHg 41%
    10:00 +40°C° 0 mm 1 m/s 746 mmHg 31%
    11:00 +40°C° 0 mm 1 m/s 745 mmHg 32%
    12:00 +36°C° 0 mm 0 m/s 744 mmHg 34%
    13:00 +35°C° 0 mm 0 m/s 743 mmHg 35%
    14:00 +35°C° 0 mm 0 m/s 743 mmHg 34%
    15:00 +36°C° 0 mm 0 m/s 742 mmHg 33%
    16:00 +36°C° 0 mm 0 m/s 742 mmHg 31%
    17:00 +34°C° 0 mm 0 m/s 743 mmHg 36%
    18:00 +32°C° 0 mm 0 m/s 743 mmHg 40%
    19:00 +30°C° 0 mm 0 m/s 743 mmHg 44%
    20:00 +29°C° 0 mm 0 m/s 744 mmHg 46%
    21:00 +29°C° 0 mm 0 m/s 744 mmHg 47%
    22:00 +28°C° 0 mm 0 m/s 744 mmHg 49%
    23:00 +28°C° 0 mm 0 m/s 744 mmHg 50%
    Mostrar mais